TimeCST,TemperatureF,Dew PointF,Humidity,Sea Level PressureIn,VisibilityMPH,Wind Direction,Wind SpeedMPH,Gust SpeedMPH,PrecipitationIn,Events,Conditions,WindDirDegrees,DateUTC
12:53 AM,44.1,37.9,79,29.98,10.0,NNW,12.7,18.4,N/A,,Clear,340,2012-12-11 06:53:00
1:53 AM,44.1,37.0,76,29.98,10.0,North,12.7,-,N/A,,Mostly Cloudy,360,2012-12-11 07:53:00
2:53 AM,43.0,36.0,76,29.98,10.0,North,9.2,-,N/A,,Clear,360,2012-12-11 08:53:00
3:53 AM,42.1,36.0,79,30.01,10.0,NNW,9.2,-,N/A,,Mostly Cloudy,340,2012-12-11 09:53:00
4:53 AM,41.0,36.0,82,30.01,10.0,North,12.7,-,N/A,,Clear,350,2012-12-11 10:53:00
5:53 AM,39.9,35.1,83,30.03,10.0,North,11.5,-,N/A,,Clear,360,2012-12-11 11:53:00
6:53 AM,39.0,35.1,86,30.04,10.0,North,9.2,-,N/A,,Scattered Clouds,350,2012-12-11 12:53:00
7:53 AM,39.9,35.1,83,30.06,10.0,North,9.2,-,N/A,,Partly Cloudy,10,2012-12-11 13:53:00
8:53 AM,41.0,36.0,82,30.09,10.0,NNW,10.4,-,N/A,,Partly Cloudy,330,2012-12-11 14:53:00
9:53 AM,42.1,35.1,76,30.10,10.0,North,12.7,-,N/A,,Clear,350,2012-12-11 15:53:00
10:53 AM,44.1,37.0,76,30.10,10.0,North,9.2,-,N/A,,Clear,350,2012-12-11 16:53:00
11:53 AM,46.0,37.0,71,30.08,10.0,North,9.2,-,N/A,,Clear,350,2012-12-11 17:53:00
12:53 PM,46.0,36.0,68,30.06,10.0,North,10.4,-,N/A,,Clear,350,2012-12-11 18:53:00
1:53 PM,45.0,36.0,71,30.05,10.0,NNE,11.5,-,N/A,,Clear,20,2012-12-11 19:53:00
2:53 PM,45.0,36.0,71,30.05,10.0,North,13.8,-,N/A,,Clear,10,2012-12-11 20:53:00
3:53 PM,44.1,36.0,73,30.07,10.0,North,12.7,-,N/A,,Clear,360,2012-12-11 21:53:00
4:53 PM,43.0,36.0,76,30.10,10.0,North,5.8,-,N/A,,Clear,350,2012-12-11 22:53:00
5:53 PM,43.0,36.0,76,30.11,10.0,North,9.2,-,N/A,,Clear,360,2012-12-11 23:53:00
6:53 PM,42.1,36.0,79,30.12,10.0,NNE,8.1,-,N/A,,Clear,20,2012-12-12 00:53:00
7:53 PM,41.0,35.1,79,30.12,10.0,North,13.8,20.7,N/A,,Clear,10,2012-12-12 01:53:00
8:53 PM,41.0,34.0,76,30.14,10.0,North,11.5,16.1,N/A,,Clear,10,2012-12-12 02:53:00
9:53 PM,41.0,34.0,76,30.18,10.0,North,8.1,-,N/A,,Clear,360,2012-12-12 03:53:00
10:53 PM,41.0,34.0,76,30.17,10.0,NE,5.8,-,N/A,,Clear,40,2012-12-12 04:53:00
11:53 PM,39.9,34.0,79,30.15,10.0,NNE,6.9,-,N/A,,Clear,20,2012-12-12 05:53:00